Regional Weather Roundup
Issued by NWS Upton, NY

Current Version | Previous Version | Graphics & Text | Print | Product List | Glossary Off
Versions: 1 2 3 4 5 6 7 8 9 10 11 12 13 14 15 16 17 18 19 20 21 22 23 24 25 26 27 28 29 30 31 32 33 34 35 36 37 38 39 40 41 42 43 44 45 46 47 48 49 50

000
ASUS41 KOKX 281408
RWROKX

REGIONAL WEATHER ROUNDUP
NATIONAL WEATHER SERVICE NEW YORK NY
1000 AM EDT TUE JUL 28 2015

NOTE: "FAIR" INDICATES FEW OR NO CLOUDS BELOW 12,000 FEET WITH NO
SIGNIFICANT WEATHER AND/OR OBSTRUCTIONS TO VISIBILITY.

NYZ071-072-176-178-NJZ106-104-281500-
NEW YORK CITY METRO AREA


CITY           SKY/WX    TMP DP  RH WIND       PRES   REMARKS
CENTRAL PARK   SUNNY     82  67  60 CALM      30.02F
LAGUARDIA APRT PTSUNNY   84  67  56 NW3       29.99F
KENNEDY INTL   MOSUNNY   81  71  71 SW7       30.00F
NEWARK/LIBERTY MOSUNNY   83  70  64 VRB3      29.99F
BRNX BOT. GARD   N/A     84  68  58 NE5       30.00F
TETERBORO      SUNNY     85  66  53 VRB6      29.98F
$$

NYZ177-179-078>081-281500-
LONG ISLAND NEW YORK

CITY           SKY/WX    TMP DP  RH WIND       PRES   REMARKS
FARMINGDALE    SUNNY     84  71  65 CALM      29.99F
ISLIP          MOSUNNY   83  72  69 VRB6      29.97F
SHIRLEY        MOSUNNY   84  73  69 VRB6      30.00F HX  90
WESTHAMPTON    MOSUNNY   83  73  72 SW7       30.00F
MONTAUK POINT    N/A     80  72  76 W7        30.00F
$$

NYZ052-065-067-281500-
HUDSON VALLEY

CITY           SKY/WX    TMP DP  RH WIND       PRES   REMARKS
WHITE PLAINS   MOSUNNY   80  71  74 W3        30.00F
NEWBURGH       SUNNY     73  70  88 CALM      30.03F
MONTGOMERY     SUNNY     80  72  76 CALM      30.01F
POUGHKEEPSIE   MOSUNNY   78  70  76 CALM      30.00F
ALBANY         MOSUNNY   80  66  62 W6        30.01F
$$

NJZ001-105-106-008-010-013-015-019>022-104-281500-
NEW JERSEY

CITY           SKY/WX    TMP DP  RH WIND       PRES   REMARKS
NEWARK/LIBERTY MOSUNNY   83  70  64 VRB3      29.99F
TETERBORO      SUNNY     85  66  53 VRB6      29.98F
CALDWELL       SUNNY     82  68  62 CALM      30.00F
MORRISTOWN     NOT AVBL
SOMERVILLE     SUNNY     83  69  62 CALM      29.99F
SUSSEX         SUNNY     79  70  74 CALM      30.02F
ANDOVER          N/A     80  70  71 CALM      30.03F
TRENTON        SUNNY     81  71  71 CALM      30.00F
MILLVILLE      SUNNY     83  73  72 N7        30.02S
ATLANTIC CITY  CLOUDY    83  74  74 N3        30.02F
WRIGHTSTOWN    SUNNY     82  74  75 VRB1      29.98F
TOMS RIVER     SUNNY     82  72  69 CALM      30.01F
BELMAR         SUNNY     82  70  65 CALM      30.01F
$$

PAZ047>061-062-071-281500-
EASTERN PENNSYLVANIA

CITY           SKY/WX    TMP DP  RH WIND       PRES   REMARKS
PHILADELPHIA   MOSUNNY   83  73  72 SE5       30.02S
ALLENTOWN      SUNNY     82  70  66 CALM      30.03S
SCRANTON       SUNNY     71  67  87 W3        30.06F
$$

CTZ002-004>006-009-010-012-RIZ004-006-007-MAZ004-011-015-281500-
SOUTHERN NEW ENGLAND
 IN CT

CITY           SKY/WX    TMP DP  RH WIND       PRES   REMARKS
BRADLEY INTL   MOSUNNY   81  67  62 CALM      29.98F
HARTFORD       SUNNY     80  70  71 S3        29.98F
DANBURY        SUNNY     81  68  64 VRB3      30.02F
WTRBRY/OXFORD  MOSUNNY   77  66  69 N5        30.04F
BRIDGEPORT     SUNNY     79  71  76 SW8       29.99F
MERIDEN        SUNNY     81  69  67 VRB5      29.99F
NEW HAVEN      MOSUNNY   77  71  82 W3        29.99F
CHESTER        FAIR      79  72  78 NW6       30.01F
GROTON         CLOUDY    77  71  82 VRB6      29.98F
WILLIMANTIC    MOSUNNY   78  69  73 NW3       29.99F

 IN RI

CITY           SKY/WX    TMP DP  RH WIND       PRES   REMARKS
PROVIDENCE     PTSUNNY   77  70  79 VRB6      29.98F
BLOCK ISLAND   PTSUNNY   79  73  83 W10       30.01S
WESTERLY       PTSUNNY   78  71  79 SW7       30.00F

 IN MA

CITY           SKY/WX    TMP DP  RH WIND       PRES   REMARKS
BOSTON         MOSUNNY   80  69  69 VRB5      29.97S
WORCESTER      SUNNY     74  66  76 SW7       30.01F
WESTFIELD      SUNNY     77  71  82 CALM      29.99F
PROVINCETOWN   PTSUNNY   75  66  73 SW10      29.98S
NANTUCKET      SUNNY     76  70  82 SW13      29.99F
$$

ANZ330-335-338-340-345-350-353-355-281500-
COASTAL MARINE OBSERVATIONS


STATION/POSITION TIME  SKY/WX   TEMP    WIND        PRES    VSBY  WAVE
                                AIR SEA DIR/SP/G                  HT/PER
                 (UTC)          (F)     (DEG/KT/KT) (MB)    (MI)  (FT/S)
NY HARB ENTRANCE 1350            74 75  220/  8/ 10 1015.7          2/ 9
4S FIRE IS       NOT AVBL
20S FIRE ISLAND  1350            74 72  220/  6/  6 1015.9          2/ 8
GREAT SOUTH BAY  1300            76 79  250/  8/  8   N/A
23SW MTP         1350            74 74  230/  8/  8 1015.5          2/10
HUDSON CANYON    NOT AVBL
KINGS POINT      1300            80 69   CALM  /  1 1015.4
CENTRAL LI SOUND NOT AVBL
EASTERN LI SOUND 1300            73 68  220/  2/  2   N/A
ROBBINS REEF     1300            75     150/  6/  7 1015.0
$$


>>>>>>>>>>>>>>>>>>>>>>>>>>>> KEY <<<<<<<<<<<<<<<<<<<<<<<<<<<
>                                                          <
>     SKY/WX - SKY CONDITION/PRESENT WEATHER               <
>     TMP    - TEMPERATURE IN FAHRENHEIT                   <
>     DP     - DEWPOINT IN FAHRENHEIT                      <
>     RH     - RELATIVE HUMIDITY IN PERCENT                <
>     WIND   - DIRECTION AND SPEED IN MPH                  <
>     PRES   - MEAN SEA LEVEL PRESSURE IN INCHES OF HG     <
>     WCI    - WIND CHILL INDEX                            <
>     VSB    - VISIBILITY IN MILES                         <
>     HX     - HEAT INDEX                                  <
>     TC     - TEMPERATURE IN CELSIUS                      <
>     VRB    - VARIABLE WIND DIRECTION                     <
>                                                          <
>>>>>>>>>>>>>>>>>>>>>>>>>>>> KEY <<<<<<<<<<<<<<<<<<<<<<<<<<<




USA.gov is the U.S. government's official web portal to all federal, state and local government web resources and services.